ZY 1

导读 | 星芒AI

ZY-1(资源一号)卫星是中国自主研发的遥感卫星系列,主要用于土地资源调查、环境监测和灾害评估等领域。该卫星具备高分辨率、多光谱成像能力,能够提供高质量的地球观测数据。ZY-1卫星自发射以来,在农业、林业、水利、城市规划等多个行业发挥了重要作用,为中国资源管理和可持续发展提供了有力支持。

基本信息
目录编号:
38038
目录名称:
ZY 1
国际标识:
2011-079A
轨道中心:
EARTH
卫星名称:
ZY 1
卫星全名:
--
卫星状态:
在轨 (已飞行5107 天)
发射日期:
2011-12-22 UTC
国别 :
中国 (CN)
星等 :
--
轨道信息
数据来源 国际轨道数据 AOE轨道数据
星历时间 2025-12-15T07:47:56+0800
18小时前
查看轨道信息
2025-12-12T19:00:00+0800
3天前
查看轨道信息
半长轴 7143.2km 7143.213km
偏心率 0.0007282 0.0007243
轨道倾角 98.433° 98.434°
近地点辐角 132.298° 139.006°
升交点赤经 54.964° 52.476°
平近点角 351.426° 197.824°
近地点 759.863km 759.904km
远地点 770.267km 770.252km
周期 100.138分钟 100.138分钟
每日圈数 14.380155 14.380116
详细信息
使用方式:
暂无
2D轨道图
3D轨道图
轨道高度分析图
轨道倾角分析图
轨道综合分析图
查看轨道综合分析图